Flag for Finland Weather past 2 weeks in Kotka, Finland

Now
39 °F

Overcast.


Feels Like: 31 °F
Forecast: 37 / 44 °F
Wind: 15 mph from North

Location: Utti

Current Time: Apr 20, 2015 at 2:38:45 AM

Latest Report: Apr 20, 2015 at 1:50 AM


Visibility: N/A

Pressure: 29.74 "Hg

Humidity: 70%

Dew point: 30 °F

Location of KotkaLocation

Historic Weather in Kotka — Graph

°F

Kotka temperature yesterday

Maximum temperature yesterday: 46 °F (at 5:20 PM)
Minimum temperature yesterday: 32 °F (at 12:20 AM)
Average temperature yesterday: 39 °F

Past Weeks' High & Low Weather Summary

 TemperatureHumidityPressure
High57 °F (Apr 12, 12:50 PM)100% (Apr 5, 3:50 AM)30.27 "Hg (Apr 5, 3:50 AM)
Low27 °F (Apr 6, 4:20 AM)28% (Apr 11, 12:50 PM)29.18 "Hg (Apr 16, 4:20 AM)
Average40 °F70%29.75 "Hg
* Reported Apr 5 1:20 AM — Apr 20 1:20 AM, Kotka, Weather by CustomWeather, © 2015

Note: Actual official high and low records may vary slightly from our data, if they occured in-between our weather recording intervals... More about our weather records

Advertising

Kotka weather history for previous 24 hours

 ConditionsComfort  
Time TempWeatherWind HumidityBarometerVisibility
1:20 AM
Mon, Apr 20
39 °FPassing clouds.15 mph70%29.74 "HgN/A
12:50 AM39 °FPassing clouds.16 mph70%29.71 "HgN/A
12:20 AM39 °FPassing clouds.14 mph70%29.71 "HgN/A
11:50 PM
Sun, Apr 19
39 °FPassing clouds.14 mph70%29.68 "HgN/A
11:20 PM39 °FPassing clouds.14 mph70%29.68 "HgN/A
10:50 PM39 °FPassing clouds.14 mph75%29.68 "HgN/A
10:20 PM39 °FPassing clouds.10 mph81%29.68 "HgN/A
9:50 PM39 °FClear.12 mph81%29.65 "Hg10 mi
9:20 PM41 °FLight rain. Broken clouds.16 mph76%29.68 "HgN/A
8:50 PM39 °FSunny.12 mph87%29.65 "Hg10 mi
8:20 PM39 °FPassing clouds.9 mph81%29.65 "HgN/A
7:50 PM39 °FSprinkles. Mostly cloudy.16 mph87%29.65 "HgN/A
7:20 PM45 °FLight rain. Mostly cloudy.12 mph66%29.65 "HgN/A
6:50 PM45 °FPassing clouds.12 mph66%29.65 "HgN/A
6:20 PM46 °FPartly sunny.14 mph62%29.65 "HgN/A
5:50 PM46 °FOvercast.12 mph62%29.68 "HgN/A
5:20 PM46 °FBroken clouds.14 mph57%29.68 "HgN/A
4:50 PM45 °FPartly sunny.6 mph61%29.68 "HgN/A
4:20 PM45 °FPassing clouds.7 mph61%29.71 "HgN/A
3:50 PM43 °FPassing clouds.7 mph66%29.71 "HgN/A
3:20 PM43 °FPassing clouds.9 mph66%29.71 "HgN/A
2:50 PM43 °FOvercast.8 mph66%29.74 "HgN/A
2:20 PM41 °FOvercast.6 mph70%29.74 "HgN/A
1:50 PM41 °FOvercast.6 mph66%29.77 "HgN/A
1:20 PM41 °FOvercast.6 mph70%29.77 "HgN/A
12:50 PM41 °FOvercast.5 mph70%29.77 "HgN/A
12:20 PM41 °FOvercast.7 mph70%29.80 "HgN/A
11:50 AM39 °FOvercast.6 mph75%29.80 "HgN/A
11:20 AM39 °FPassing clouds.6 mph75%29.83 "HgN/A
10:50 AM39 °FPassing clouds.7 mph75%29.83 "HgN/A
10:20 AM39 °FOvercast.6 mph75%29.83 "HgN/A
9:50 AM37 °FPassing clouds.5 mph81%29.83 "HgN/A
9:20 AM37 °FPassing clouds.6 mph81%29.86 "HgN/A
8:50 AM37 °FPassing clouds.8 mph81%29.86 "HgN/A
8:20 AM36 °FPassing clouds.7 mph87%29.86 "HgN/A
7:50 AM36 °FSunny.7 mph87%29.86 "Hg10 mi
7:20 AM36 °FPartly sunny.7 mph87%29.86 "HgN/A
6:50 AM36 °FOvercast.6 mph81%29.89 "HgN/A
6:20 AM34 °FPassing clouds.6 mph87%29.86 "HgN/A
5:50 AM34 °FOvercast.6 mph87%29.89 "HgN/A
5:20 AM34 °FClear.3 mph87%29.89 "Hg10 mi
4:50 AM34 °FClear.6 mph87%29.89 "Hg10 mi
4:20 AM34 °FClear.5 mph81%29.89 "Hg10 mi
3:50 AM34 °FPassing clouds.5 mph81%29.92 "HgN/A
3:20 AM34 °FClear.6 mph81%29.92 "Hg10 mi
2:50 AM34 °FClear.7 mph81%29.92 "Hg10 mi
2:20 AM34 °FClear.6 mph81%29.92 "Hg10 mi
Weather by CustomWeather, © 2015

See weather overviewHow to use our weather pages